Weather Roundup
Issued by NWS Chicago, IL

Home | Current Version | Previous Version | Text Only | Print | Product List | Glossary Off
Versions: 1 2 3 4 5 6 7 8 9 10 11 12 13 14 15 16 17 18 19 20 21 22 23 24 25 26 27 28 29 30 31 32 33 34 35 36 37 38 39 40 41 42 43 44 45 46 47 48 49 50

000
NZUS59 KLOT 260108
HRRLOT

CHICAGO AREA WEATHER ROUNDUP
NATIONAL WEATHER SERVICE CHICAGO/ROMEOVILLE IL
800 PM CDT WED MAY 25 2016

NOTE: "FAIR" INDICATES FEW OR NO CLOUDS BELOW 12,000 FEET WITH NO
SIGNIFICANT WEATHER AND/OR OBSTRUCTIONS TO VISIBILITY.

* THESE STATIONS ARE NOT UNDER NWS QUALITY CONTROL. THEY ALSO MAY NOT
  REPORT WEATHER SUCH AS PRECIPITATION OR FOG.

ILZ005-006-012>014-019>023-260200-
NORTHEAST ILLINOIS

CITY           SKY/WX    TMP DP  RH WIND       PRES   REMARKS
OHARE          LGT RAIN  68  64  87 NE10      29.91F
MIDWAY         CLOUDY    68  64  87 NE10      29.91F
AURORA         CLOUDY    69  66  90 E9        29.92R
LANSING*       CLOUDY    69  64  83 N9        29.93R
JOLIET*        CLOUDY    70  67  92 NE6       29.92R
WAUKEGAN       CLOUDY    66  64  93 SE9       29.91S
DUPAGE AIRPORT TSTM      67  63  87 E9        29.90F FOG
WHEELING       TSTM      66  64  93 E10       29.92S FOG
KANKAKEE*      MOCLDY   N/A N/A N/A S12       29.93R
MORRIS*        CLOUDY    73  64  74 E7        29.91R
LEWIS AIRPORT* CLOUDY    67  63  85 N3        29.94R
$$

WIZ051-052-058>065-066-070>072-260200-
SOUTHEAST WISCONSIN

CITY           SKY/WX    TMP DP  RH WIND       PRES   REMARKS
MILWAUKEE      LGT RAIN  54  52  93 NE5       29.93R FOG
KENOSHA*       LGT RAIN  66  63  90 SE7       29.91R
RACINE*        LGT RAIN  56  53  90 NE3       29.94R FOG
BURLINGTON     LGT RAIN  67  64  88 CALM      29.92R
WAUKESHA       CLOUDY    61  57  88 E7        29.92R FOG
WEST BEND      RAIN      59  55  88 CALM      29.94R
$$

INZ001>003-010>013-019-020-260200-
NORTHWEST INDIANA

CITY           SKY/WX    TMP DP  RH WIND       PRES   REMARKS
GARY*          CLOUDY    70  68  94 N9        29.94R
MICHIGAN CITY* NOT AVBL
RENSSELAER*    NOT AVBL
VALPARAISO     CLOUDY    79  64  60 S9        29.94R HX  81
$$

LMZ740>746-260200-
SOUTHERN LAKE MICHIGAN

STATION/POSITION TIME  SKY/WX   TEMP WIND        PRES    VSBY
                                AIR  DIR/SP/G
                 (UTC)          (F)  (DEG/KT/KT) (MB)    (MI)
HARRISON CRIB    0000            66  330/  7/  8   N/A
BURNHAM HARBOR   0100            65  350/  7/ 23   N/A
CALUMET HARBOR   0000                330/  8/ 15 1012.6R
BURNS HARBOR     0000            66   70/  5/  7 1013.2R
MICHIGAN CITY    0000            69  280/ 14/ 15   N/A
$$

ABBREVIATIONS USED IN REMARKS
   TC - TEMPERATURE IN CELSIUS
  WCI - WIND CHILL INDEX
   HX - HEAT INDEX
  VSB - VISIBILITY
$$




USA.gov is the U.S. government's official web portal to all federal, state and local government web resources and services.